AI4Y Weather Reports


time (UTC)temp
F
wind
direction
speed
knots
gust
knots
rain 1hr
in
rain 24hr
in
rain mn
in
humidity
%
barometer
mb
20260505052016 58 181 0.0 0.9 0.00 0.00 0.00 61 1013.6
20260505051016 59 228 0.0 0.0 0.00 0.00 0.00 60 1013.6
20260505041017 61 52 0.0 0.9 0.00 0.00 0.00 58 1013.4
20260505040017 61 55 0.0 1.7 0.00 0.00 0.00 58 1013.5
20260505035017 61 160 0.0 0.9 0.00 0.00 0.00 57 1013.5
20260505034017 61 116 0.0 2.6 0.00 0.00 0.00 57 1013.5
20260505033038 61 189 0.0 1.7 0.00 0.00 0.00 58 1013.6
20260505032018 62 123 0.0 1.7 0.00 0.00 0.00 58 1013.5
20260505031018 62 276 0.0 2.6 0.00 0.00 0.00 58 1013.5
20260505030038 62 104 0.9 3.5 0.00 0.00 0.00 58 1013.5
20260505025038 62 141 0.0 1.7 0.00 0.00 0.00 59 1013.6
20260505024036 62 157 0.0 1.7 0.00 0.00 0.00 59 1013.6
20260505023018 63 81 0.9 1.7 0.00 0.00 0.00 57 1013.5
20260505022015 63 85 0.0 0.9 0.00 0.00 0.00 57 1013.6
20260505021016 64 152 0.0 1.7 0.00 0.00 0.00 55 1013.6
20260505020016 64 133 0.0 1.7 0.00 0.00 0.00 55 1013.6
20260505015036 64 130 0.9 2.6 0.00 0.00 0.00 55 1013.6
20260505014016 65 311 0.0 3.5 0.00 0.00 0.00 55 1013.6
20260505013017 65 129 0.0 1.7 0.00 0.00 0.00 55 1013.5
20260505012016 65 258 0.0 0.9 0.00 0.00 0.00 55 1013.3
20260505011017 66 153 0.9 2.6 0.00 0.00 0.00 54 1013.2
20260505010017 66 157 0.9 2.6 0.00 0.00 0.00 54 1013.1
20260505005017 66 185 0.0 1.7 0.00 0.00 0.00 54 1012.9
20260505004018 67 150 0.0 1.7 0.00 0.00 0.00 54 1012.8
20260505003037 68 193 0.0 1.7 0.00 0.00 0.00 54 1012.7
20260505002018 69 207 0.0 0.9 0.00 0.00 0.00 53 1012.6
20260505001017 70 136 0.0 1.7 0.00 0.00 0.00 52 1012.6
20260505000018 72 113 0.0 2.6 0.00 0.00 0.00 52 1012.5
20260504235018 74 109 0.0 1.7 0.00 0.00 0.00 50 1012.4
20260504234018 76 112 0.0 0.9 0.00 0.00 0.00 47 1012.3
20260504233018 77 114 0.0 2.6 0.00 0.00 0.00 44 1012.3
20260504232018 78 202 0.9 3.5 0.00 0.00 0.00 44 1012.2
20260504231038 78 190 0.9 2.6 0.00 0.00 0.00 44 1012.2
20260504230019 78 195 0.9 2.6 0.00 0.00 0.00 43 1012.2
20260504225016 78 241 0.9 3.5 0.00 0.00 0.00 44 1012.2
20260504224016 76 227 0.9 2.6 0.00 0.00 0.00 45 1012.2
20260504223016 76 194 0.9 1.7 0.00 0.00 0.00 47 1012.3
20260504222017 77 207 1.7 2.6 0.00 0.00 0.00 46 1012.4
20260504221016 78 208 1.7 3.5 0.00 0.00 0.00 45 1012.4
20260504220016 80 164 0.9 2.6 0.00 0.00 0.00 43 1012.5
20260504215016 81 185 1.7 3.5 0.00 0.00 0.00 42 1012.4
20260504214037 80 243 1.7 5.2 0.00 0.00 0.00 41 1012.4
20260504213017 78 186 1.7 4.3 0.00 0.00 0.00 43 1012.3
20260504212017 76 214 0.9 2.6 0.00 0.00 0.00 47 1012.4
20260504211017 77 217 1.7 3.5 0.00 0.00 0.00 45 1012.4
20260504210017 77 273 1.7 3.5 0.00 0.00 0.00 45 1012.3
20260504205020 78 261 1.7 2.6 0.00 0.00 0.00 43 1012.4
20260504204018 78 263 0.9 2.6 0.00 0.00 0.00 42 1012.5
20260504203018 78 217 0.9 2.6 0.00 0.00 0.00 42 1012.7
20260504202018 79 249 0.9 1.7 0.00 0.00 0.00 40 1012.7
20260504201018 77 230 1.7 3.5 0.00 0.00 0.00 42 1012.7
20260504200018 77 255 1.7 4.3 0.00 0.00 0.00 41 1012.8
20260504195015 76 266 0.9 2.6 0.00 0.00 0.00 43 1012.9
20260504194016 77 283 1.7 3.5 0.00 0.00 0.00 42 1013.2
20260504193015 76 295 1.7 5.2 0.00 0.00 0.00 42 1013.3
20260504192015 76 266 0.9 3.5 0.00 0.00 0.00 42 1013.4
20260504191016 74 249 1.7 4.3 0.00 0.00 0.00 43 1013.4
20260504190016 73 301 3.5 5.2 0.00 0.00 0.00 44 1013.5
20260504185016 72 294 2.6 5.2 0.00 0.00 0.00 44 1014.1
20260504184016 73 275 3.5 7.0 0.00 0.00 0.00 43 1014.0
20260504183016 73 279 3.5 7.0 0.00 0.00 0.00 43 1014.2
20260504182017 73 277 3.5 7.8 0.00 0.00 0.00 42 1014.3
20260504181017 75 254 3.5 7.0 0.00 0.00 0.00 42 1014.5
20260504180037 76 244 2.6 7.8 0.00 0.00 0.00 40 1014.3
20260504175017 77 268 2.6 6.1 0.00 0.00 0.00 40 1014.3
20260504174017 77 258 2.6 17.4 0.00 0.00 0.00 39 1014.2
20260504173017 76 291 3.5 7.0 0.00 0.00 0.00 40 1014.2
20260504172018 76 295 3.5 7.0 0.00 0.00 0.00 40 1014.5
20260504171018 76 205 2.6 6.1 0.00 0.00 0.00 42 1014.4
20260504151016 71 274 2.6 5.2 0.00 0.00 0.00 41 1016.1
20260504141017 68 288 2.6 7.0 0.00 0.00 0.00 42 1016.2
20260504081016 43 311 0.0 1.7 0.00 0.00 0.00 91 1016.5